THORAD DELTA 1 DEB, 8166

Orbit data source: Space-Track

THORAD DELTA 1 DEB, 8166 is space debris in SSO originally from a launch on Fri, 15 Nov 1974 UTC launched from the Air Force Western Test Range (AFWTR). Debris objects in space refer to the collection of defunct objects orbiting the Earth. Examples of debris include non-operational satellites, rocket bodies, and fragments generated from explosions, collisions, or faulty payload assembly.

Loading next visibility...
Identifier
8166, 1974-089AG
Orbit
SSO
Country
Flag of USUS
Related business
Manufacturer
Unknown
Mission
Spacecraft
Bus & Motor
Unknown
Mass
Unknown
Launch date (UTC)
1974-11-15 (52 years ago)
Launch vehicle
Unknown
Launch site
Air Force Western Test Range (AFWTR)
Object type
Payload
Rocket body
Debris
Shape & HBR
Unknown shape, 0.1 m
Radar Cross Section
Medium (>0.1 m² and <1 m²)

Expand to show TLE details & history
Last TLE update: 3 days ago

TLE from 3 days ago
0 THORAD DELTA 1 DEB
1 08166U 74089AG  26170.94540457  .00000025  00000-0  45519-3 0  9997
2 08166 102.0205 167.9248 0039258 356.0523  32.2040 12.51668383354300
Epoch: 2026-06-19T22:41Z
TLE epoch observation values (Epoch: 2026-06-19T22:41:22.954Z)
Latitude
27.85831°
Longitude
-87.01785°
Altitude
1,434.646 km
Speed
7.158 km/s
True Right ascension
10h 45m 58s
True Declination
27° 43' 44"
Sunlit
Object was in daylight at epoch
Visualization orbit readout
Latitude
Unknown
Longitude
Unknown
Altitude
Unknown
Speed
Unknown
Apparent Right ascension
Unknown
Apparent Declination
Unknown
Sunlit
N/A
Visualization observer readout
Local Sidereal Time
00:50:16
Azimuth
Unknown
Elevation
Unknown
Doppler factor
Unknown
Orbital elements
Apogee altitude
1,485.837 km
Perigee altitude
1,424.333 km
Semi-major axis
7,833.222 km
Eccentricity
0.00393
Inclination
102.0205°
RAAN
167.9248°
Arg. of periapsis
356.0523°
True anomaly
32.44475°
Mean anomaly
32.204°
Eccentric anomaly
32.32427°
Mean motion
3.13064 °/min
Orbital period
114.99 mins
BSTAR
0.00045519

Documentation

Showing up to 5 results
|